Powrót do katalogu

HALCA

MUSES B

AktywnyNaukaHEO
NORAD 24720·PAYLOAD·🇯🇵 Japan

Wystrzelony Feb 12, 1997 z Uchinoura Space Center

Loading…

Następne Przeloty (najbliższe 24 godziny)

TLE

ŚwieżeSource: Space-Track

Epoka: Sep 14, 2026, 12:18 UTC

1 24720U 97005A   26257.51273073  .00000296  00000-0  12509-2 0  9992
2 24720  31.2065 216.2538 5980159 314.3689 281.4173  3.84902768413104

Śledź HALCA w czasie rzeczywistym z AllMySat

Download on the App Store